Location: Arrien
(43.3167°N, 0.1500°W)
Time: 03:47:04
(UTC+00:00)

Cosmos 1980 Rocket - Pass Details

Date: 15 October 2021
Orbit: 828 x 851 km, 71.0° (Epoch: 02 December)

Event Time Altitude Azimuth Distance (km) Brightness Sun altitude
Rises 19:12:40 0° 215° (SW) 3,375 5.7 -21.7°
Reaches altitude 10° 19:15:08 10° 219° (SW) 2,448 5.0 -22.1°
Maximum altitude 19:20:40 58° 299° (WNW) 980 2.7 -23.1°
Drops below altitude 10° 19:26:16 10° 18° (NNE) 2,478 4.6 -24.1°
Sets 19:28:47 0° 22° (NNE) 3,420 5.3 -24.6°
